Location: Recife
(8.0585°S, 34.8848°W)
Time: 09:56:30
(UTC-03:00)

Transit 2A Rocket - Pass Details

Date: 19 April 2026
Orbit: 587 x 895 km, 66.7° (Epoch: 14 May)

Event Time Altitude Azimuth Distance (km) Brightness Sun altitude
Rises 11:20:10 0° 336° (NNW) 2,813 8.2 70.6°
Reaches altitude 10° 11:22:24 10° 333° (NNW) 1,904 7.5 70.6°
Maximum altitude 11:26:37 70° 250° (WSW) 628 5.8 70.5°
Drops below altitude 10° 11:30:55 10° 166° (SSE) 1,940 7.0 70.4°
Sets 11:33:13 0° 163° (SSE) 2,871 7.8 70.3°
